User: anonymous   Login
Location: Petruro
(41.0333°N, 14.7833°E)
Time: 18:42:22
(UTC+00:00)
Language:

YAOGAN 11 - Orbit

View from above orbital plane
View from above orbital plane
View from above satellite
View from above satellite

Ground track
Ground track

The orbit data is extracted from the following two-line orbital elements,

1 37165U 10047A   21262.85275954  .00000048  00000-0  14997-4 0  9998
2 37165  98.3185  27.3896 0039113  17.4003 342.8536 14.76364683592213
Epoch (UTC): 19 September 2021 20:27:58
Eccentricity: 0.0039113
inclination: 98.3185°
perigee height: 613 km
apogee height: 668 km
right ascension of ascending node: 27.3896°
argument of perigee: 17.4003°
revolutions per day: 14.76364683
mean anomaly at epoch: 342.8536°
orbit number at epoch: 59221

The dashed part of the orbit path shows where the satellite is in the earth's shadow,  

DLR